Regional Weather Roundup
Issued by NWS Newport/Morehead, NC

Current Version | Previous Version | Graphics & Text | Print | Product List | Glossary On
Versions: 1 2 3 4 5 6 7 8 9 10 11 12 13 14 15 16 17 18 19 20 21 22 23 24 25 26 27 28 29 30 31 32 33 34 35 36 37 38 39 40 41 42 43 44 45 46 47 48 49 50
000 ASUS42 KMHX 201626 RWRMHX WEATHER ROUNDUP FOR EASTERN NORTH CAROLINA NATIONAL WEATHER SERVICE NEWPORT/MOREHEAD CITY NC 1200 PM EDT FRI APR 20 2018 NOTE: "FAIR" INDICATES FEW OR NO CLOUDS BELOW 12,000 FEET WITH NO SIGNIFICANT WEATHER AND/OR OBSTRUCTIONS TO VISIBILITY NCZ015>017-031-032-045>047-102-103-201700- NORTH COAST CITY SKY/WX TMP DP RH WIND PRES REMARKS EDENTON FAIR 55 26 32 N15 30.33S ELIZABETH CITY FAIR 56 31 38 N14G22 30.31S KITTY HAWK FAIR 49 32 52 N9 30.30S MANTEO FAIR 52 32 47 NE12G18 30.32R $$ NCZ045>047-081-094-103-104-201700- CENTRAL COAST CITY SKY/WX TMP DP RH WIND PRES REMARKS FRISCO FAIR 58 28 32 VRB6 30.31R $$ NCZ095-097-098-100-101-201700- SOUTHERN COAST CITY SKY/WX TMP DP RH WIND PRES REMARKS BEAUFORT FAIR 58 30 34 NW13G22 30.32S CEDAR ISLAND NOT AVBL JACKSONVILLE FAIR 59 29 31 N7G18 30.33S PINEY ISLAND NOT AVBL WILMINGTON FAIR 59 28 30 N13 30.34F $$ NCZ011>013-027>030-043-044-078>080-089-090>093-098-201700- COASTAL PLAIN CITY SKY/WX TMP DP RH WIND PRES REMARKS AHOSKIE FAIR 53 25 33 N7 30.33F CLINTON FAIR 59 32 36 NW9 30.35F ELIZABETHTOWN FAIR 58 28 32 MISG 30.35F GOLDSBORO FAIR 57 27 31 NW6 30.32F GREENVILLE FAIR 54 25 32 N8 30.34F HAVELOCK SUNNY 58 31 35 N5G17 30.33F KENANSVILLE FAIR 57 28 33 NE7 30.34F KINSTON FAIR 59 27 29 N14 30.34F NEW BERN FAIR 56 30 37 VRB5G17 30.34S RICHLANDS FAIR 57 29 34 VRB6 30.34F ROCKY MOUNT FAIR 57 27 31 N9G18 30.35S WASHINGTON FAIR 57 24 27 N9G22 30.33F WHITEVILLE FAIR 58 30 33 NE7 30.34F $$ AMZ130-135-150-152-154-156-158-170-250-252-270-ANZ085-086-088-633-658-670-201700- MARINE OBSERVATIONS STATION/POSITION TIME TEMP WIND PRES WAVE SWELL AIR SEA DIR/SP/G HT/PER HT/PER (UTC) (F) (DEG/KT/KT) (MB) (FT/S) (FT/S) CHESAPEAKE LIGHT NOT AVBL 64 E VA BEACH 1550 44 48 340/ 14/ 17 1026.3 6/ 6 2/14 DUCK 1600 47 51 10/ 11/ 14 1025.9 2 E DUCK 1600 51 N/A 4/ 6 OREGON INLET 1548 49 56 10/ 11/ 16 1026.1 13E OREGON INLT 1548 51 N/A 5/ 7 3/ 7 HATTERAS CG 1600 51 60 340/ 14/ 18 1026.1 DIAMOND BUOY 1610 52 70 330/ 16/ 21 1026.5 CAPE LOOKOUT 1600 10/ 10/ 13 1027.0 BEAUFORT LAB 1600 54 61 20/ 8/ 13 1026.9 30 SE NEW RVR IN 1608 53 65 40/ 10/ 16 1027.2 30 SE NEW RVR IN 1600 65 N/A 5/10 2/11 27 SE WRIGHTSVLE 1608 53 66 40/ 12/ 19 1027.4 5 SE WRIGHTSVLE 1608 54 60 50/ 10/ 14 1027.0 225 S CAPE HAT 1610 65 72 30/ 17/ 23 1022.8 41 SE CHARLESTON 1610 58 40/ 21/ 27 1026.0 $$

USA.gov is the U.S. government's official web portal to all federal, state and local government web resources and services.